Starlink 32406

operational
NORAD ID: 61545 Int'l Des: 2024-184 Owner: SPXS Country: US Constellation: starlink
LEOCIRCULAR

Über Starlink 32406

Beschreibung wird geladen...

Live-Position

3D-Globus wird geladen...

Nächste Überflüge

Höhenverlauf

Altitude vs Time

uPlot chart will show altitude changes over time

Zweizeiliger Elementsatz

1 61545U 24184P 25306.05079903 .00001276 00000-0 55211-4 0 9993
2 61545 53.1609 246.9001 0001144 75.0350 285.0777 15.30190868 58964
Epoch: 2. Nov. 2025 • Age: 32 hours

Aktueller Status

Höhe 477.8 km
Geschwindigkeit 7.63 km/s
Subsatellitenpunkt 37.44°N, 154.03°W
Startdatum 15. Okt. 2024
Alter 1 years
Typ internet

Technische Details

Klassifizierung Payload
Masse 730.00 kg
Trockenmasse 700.00 kg
Gesamtmasse 730.00 kg
Länge 0.30 m
Durchmesser 4.10 m
Spannweite 29.00 m
Form Box + pan
Hersteller SPXS
Bus-Typ Starlink V2M
Phasenstatus In Orbit
Besitzer/Staat SPXS/US

Große Konstellationen

Loading constellations...